FW0288 Weather Reports


time (UTC)temp
C
wind
direction
speed
KPH
gust
KPH
rain 1hr
cm
rain 24hr
cm
rain mn
cm
humidity
%
barometer
mb
20260901153016 21 360 1.6 11.3 0.00 0.18 0.08 47 1007.9
20260901151514 21 264 0.0 6.4 0.00 0.18 0.08 49 1007.9
20260901150010 21 256 0.0 4.8 0.00 0.18 0.08 54 1007.7
20260901144505 20 360 1.6 11.3 0.00 0.18 0.08 59 1007.7
20260901143001 16 360 1.6 9.7 0.00 0.18 0.08 80 1007.7
20260901141557 16 123 0.0 0.0 0.00 0.18 0.08 83 1007.9
20260901140057 15 155 3.2 4.8 0.00 0.18 0.08 83 1007.9
20260901134549 15 261 0.0 0.0 0.00 0.18 0.08 83 1007.8
20260901133047 15 261 0.0 0.0 0.00 0.18 0.08 83 1007.6
20260901131546 15 261 0.0 0.0 0.00 0.18 0.08 82 1007.3
20260901130055 15 261 0.0 0.0 0.00 0.18 0.08 83 1007.0
20260901124542 15 260 0.0 0.0 0.00 0.18 0.08 83 1006.7
20260901123040 15 261 0.0 0.0 0.00 0.18 0.08 83 1006.6
20260901121540 15 261 0.0 0.0 0.00 0.18 0.08 83 1006.5
20260901120040 15 261 0.0 1.6 0.00 0.18 0.08 84 1006.5
20260901114559 15 261 0.0 0.0 0.00 0.18 0.08 84 1006.4
20260901113038 15 260 0.0 3.2 0.00 0.18 0.08 84 1006.4
20260901111540 15 257 0.0 0.0 0.00 0.18 0.08 85 1006.4
20260901110036 15 257 0.0 0.0 0.00 0.18 0.08 85 1006.5
20260901104535 15 257 0.0 0.0 0.00 0.18 0.08 85 1006.5
20260901103034 15 257 0.0 0.0 0.00 0.18 0.08 85 1006.6
20260901101534 15 257 0.0 0.0 0.00 0.18 0.08 85 1006.6
20260901100033 15 258 0.0 0.0 0.00 0.18 0.08 86 1006.8
20260901094537 15 258 0.0 0.0 0.00 0.18 0.08 86 1006.8
20260901093028 15 257 0.0 0.0 0.00 0.18 0.08 87 1007.0
20260901091528 15 258 0.0 0.0 0.00 0.18 0.08 87 1007.0
20260901090127 15 258 0.0 3.2 0.00 0.18 0.08 88 1007.2
20260901084524 16 248 0.0 0.0 0.00 0.18 0.08 87 1007.3
20260901083023 16 248 0.0 0.0 0.00 0.18 0.08 87 1007.3
20260901081521 16 248 0.0 0.0 0.05 0.18 0.08 86 1007.6
20260901080022 16 232 0.0 0.0 0.08 0.18 0.08 86 1007.8
20260901074519 16 232 0.0 0.0 0.08 0.18 0.08 85 1007.9
20260901073014 16 230 0.0 4.8 0.08 0.18 0.08 83 1008.2
20260901071513 17 215 0.0 0.0 0.03 0.13 0.03 81 1008.2
20260901070013 17 261 0.0 0.0 0.00 0.10 0.00 82 1008.5
20260901064517 17 261 0.0 0.0 0.00 0.10 0.00 81 1007.9
20260901063011 17 261 0.0 0.0 0.00 0.10 0.00 80 1008.0
20260901061509 17 261 0.0 0.0 0.00 0.10 0.00 81 1008.0
20260901060005 17 261 0.0 0.0 0.00 0.10 0.00 81 1007.8
20260901054505 17 261 0.0 0.0 0.00 0.10 0.10 80 1007.6
20260901053006 17 261 0.0 4.8 0.00 0.10 0.10 81 1007.6
20260901051505 16 257 0.0 0.0 0.00 0.10 0.10 82 1007.6
20260901050003 16 244 0.0 0.0 0.00 0.10 0.10 84 1007.7
20260901044505 16 268 0.0 3.2 0.00 0.10 0.10 85 1007.7
20260901043003 16 263 0.0 0.0 0.00 0.10 0.10 85 1007.9
20260901041506 16 263 0.0 4.8 0.00 0.10 0.10 85 1007.7
20260901040002 16 264 0.0 6.4 0.03 0.10 0.10 85 1008.0
20260901034501 16 301 0.0 4.8 0.05 0.10 0.10 84 1007.7
20260901033118 16 35 0.0 4.8 0.10 0.10 0.10 83 1008.2
20260901031559 17 165 0.0 4.8 0.10 0.10 0.10 81 1009.0
20260901030104 17 178 3.2 19.3 0.08 0.08 0.08 79 1009.3
20260901024555 18 360 0.0 12.9 0.05 0.05 0.05 71 1009.2
20260901023052 20 360 3.2 38.6 0.00 0.00 0.00 61 1008.4
20260901021602 21 262 0.0 4.8 0.00 0.00 0.00 52 1006.9
20260901020051 21 278 0.0 6.4 0.00 0.00 0.00 54 1006.3
20260901014551 21 271 0.0 6.4 0.00 0.00 0.00 54 1006.3
20260901013104 21 277 0.0 11.3 0.00 0.00 0.00 55 1006.3
20260901011610 21 262 0.0 12.9 0.00 0.00 0.00 55 1006.6
20260901010055 21 287 0.0 11.3 0.00 0.00 0.00 55 1006.5
20260901004548 21 240 1.6 20.9 0.00 0.00 0.00 58 1006.8
20260901003050 25 255 6.4 19.3 0.00 0.00 0.00 42 1006.7
20260901001548 26 360 1.6 12.9 0.00 0.00 0.00 35 1005.9
20260901000047 27 317 0.0 0.0 0.00 0.00 0.00 33 1005.7
20260831234556 27 16 0.0 3.2 0.00 0.00 0.00 33 1005.6
20260831233048 27 13 0.0 8.0 0.00 0.00 0.00 32 1005.6
20260831231545 27 46 0.0 8.0 0.00 0.00 0.00 31 1005.6
20260831230043 27 360 0.0 6.4 0.00 0.00 0.00 33 1005.7
20260831224547 27 121 1.6 6.4 0.00 0.00 0.00 31 1006.1
20260831223047 27 69 0.0 3.2 0.00 0.00 0.00 35 1006.2
20260831221559 26 72 0.0 6.4 0.00 0.00 0.00 35 1006.4
20260831220042 27 78 0.0 1.6 0.00 0.00 0.00 33 1006.5
20260831214547 27 360 0.0 6.4 0.00 0.00 0.00 34 1006.6
20260831213040 27 339 0.0 4.8 0.00 0.00 0.00 32 1006.8
20260831211545 27 26 0.0 4.8 0.00 0.00 0.00 33 1007.0
20260831210036 26 360 1.6 12.9 0.00 0.00 0.00 35 1007.3
20260831204538 26 360 0.0 3.2 0.00 0.00 0.00 35 1007.4
20260831203046 26 96 0.0 0.0 0.00 0.00 0.00 38 1007.7
20260831201544 26 94 0.0 0.0 0.00 0.00 0.00 36 1008.0
20260831200034 26 360 0.0 4.8 0.00 0.00 0.00 34 1008.1
20260831194538 26 360 0.0 8.0 0.00 0.00 0.00 39 1008.2
20260831193031 26 46 0.0 8.0 0.00 0.00 0.00 36 1008.4
20260831191530 25 94 0.0 4.8 0.00 0.00 0.00 41 1008.6
20260831190029 26 360 0.0 1.6 0.00 0.00 0.00 42 1008.8
20260831184530 25 38 0.0 3.2 0.00 0.00 0.00 39 1008.9
20260831183026 25 94 0.0 3.2 0.00 0.00 0.00 37 1009.0
20260831181525 25 118 0.0 3.2 0.00 0.00 0.00 41 1009.0
20260831180021 24 360 0.0 4.8 0.00 0.00 0.00 42 1009.1
20260831174521 23 61 0.0 4.8 0.00 0.00 0.00 44 1009.2
20260831173020 23 76 0.0 0.0 0.00 0.00 0.00 43 1009.3
20260831171520 23 360 0.0 1.6 0.00 0.00 0.00 44 1009.3
20260831170019 23 58 0.0 0.0 0.00 0.00 0.00 41 1009.3
20260831164523 23 59 0.0 0.0 0.00 0.00 0.00 42 1009.2
20260831163020 23 60 0.0 0.0 0.00 0.00 0.00 43 1009.1
20260831161514 23 58 0.0 6.4 0.00 0.00 0.00 41 1008.9
20260831160012 23 180 0.0 0.0 0.00 0.00 0.00 45 1008.9
20260831154511 23 204 0.0 0.0 0.00 0.00 0.00 43 1008.8